DW8215 Weather Reports


Display with metric or nautical units.
time (UTC)temp
F
wind
direction
speed
MPH
gust
MPH
rain 1hr
in
rain 24hr
in
rain mn
in
humidity
%
barometer
mb
20260504024543 46 270 0.0 0.0 0.00 0.00 0.00 56 1001.7
20260504023037 46 270 0.0 0.0 0.00 0.00 0.00 58 1001.9
20260504021537 47 270 0.0 0.0 0.00 0.00 0.00 58 1002.0
20260504020037 47 270 0.0 0.0 0.00 0.00 0.00 57 1002.1
20260504014539 49 270 0.0 0.0 0.00 0.00 0.00 54 1002.1
20260504013039 51 270 0.0 1.0 0.00 0.00 0.00 46 1002.2
20260504011535 54 270 0.0 1.0 0.00 0.00 0.00 39 1002.3
20260504010036 56 270 0.0 0.0 0.00 0.00 0.00 32 1002.3
20260504004535 58 270 0.0 4.0 0.00 0.00 0.00 30 1002.5
20260504003041 59 271 2.0 7.0 0.00 0.00 0.00 28 1002.6
20260504001535 59 260 2.0 9.0 0.00 0.00 0.00 28 1002.6
20260504000033 60 279 2.0 9.0 0.00 0.00 0.00 28 1002.6
20260503234533 61 49 1.0 8.0 0.00 0.00 0.00 27 1002.5
20260503233037 62 263 3.0 12.0 0.00 0.00 0.00 27 1002.4
20260503231531 62 326 1.0 10.0 0.00 0.00 0.00 28 1002.4
20260503230031 62 320 3.0 9.0 0.00 0.00 0.00 30 1002.4
20260503224530 62 56 3.0 6.0 0.00 0.00 0.00 30 1002.4
20260503223030 62 261 5.0 12.0 0.00 0.00 0.00 29 1002.4
20260503221526 62 327 4.0 10.0 0.00 0.00 0.00 32 1002.2
20260503220126 62 231 5.0 16.0 0.00 0.00 0.00 38 1002.2
20260503214524 62 286 6.0 15.0 0.00 0.00 0.00 42 1002.2
20260503213024 63 211 5.0 11.0 0.00 0.00 0.00 43 1002.1
20260503211522 63 306 5.0 19.0 0.00 0.00 0.00 41 1001.9
20260503210021 64 296 6.0 12.0 0.00 0.00 0.00 41 1001.8
20260503204520 64 311 4.0 14.0 0.00 0.00 0.00 42 1001.7
20260503203026 64 304 5.0 12.0 0.00 0.00 0.00 43 1001.7
20260503201520 66 277 4.0 15.0 0.00 0.00 0.00 41 1001.7
20260503200018 66 221 3.0 13.0 0.00 0.00 0.00 43 1001.7
20260503194517 66 315 1.0 15.0 0.00 0.00 0.00 47 1001.5
20260503193016 67 323 6.0 14.0 0.00 0.00 0.00 44 1001.7
20260503191514 67 304 4.0 19.0 0.00 0.00 0.00 43 1001.8
20260503190013 67 308 6.0 14.0 0.00 0.00 0.00 42 1001.9
20260503184508 67 282 6.0 14.0 0.00 0.00 0.00 41 1001.9
20260503183002 67 270 5.0 10.0 0.00 0.00 0.00 41 1002.0
20260503181501 68 315 3.0 9.0 0.00 0.00 0.00 42 1001.9
20260503180059 67 338 2.0 11.0 0.00 0.00 0.00 43 1002.0
20260503174556 67 341 3.0 14.0 0.00 0.00 0.00 43 1002.2
20260503173052 65 278 1.0 14.0 0.00 0.00 0.00 45 1002.3
20260503171609 65 261 3.0 7.0 0.00 0.00 0.00 47 1002.3
20260503081520 43 344 2.0 5.0 0.00 0.00 0.00 72 1007.6
20260503071514 43 246 0.0 0.0 0.00 0.00 0.00 71 1008.0
20260503054500 45 193 0.0 0.0 0.00 0.00 0.00 59 1009.4
20260503053059 45 142 0.0 2.0 0.00 0.00 0.00 59 1009.7
20260503051559 45 207 0.0 0.0 0.00 0.00 0.00 57 1009.7
20260503050056 44 309 0.0 2.0 0.00 0.00 0.00 58 1009.9
20260503044557 42 254 2.0 4.0 0.00 0.00 0.00 64 1010.4
20260503043052 44 239 0.0 0.0 0.00 0.00 0.00 64 1010.0
20260503041548 45 104 0.0 4.0 0.00 0.00 0.00 57 1010.0
20260503040045 44 142 2.0 4.0 0.00 0.00 0.00 56 1010.2
20260503034546 42 138 0.0 3.0 0.00 0.00 0.00 64 1010.5
20260503033040 40 264 0.0 0.0 0.00 0.00 0.00 71 1010.8
20260503031538 40 264 0.0 0.0 0.00 0.00 0.00 72 1011.1
20260503030036 40 264 0.0 0.0 0.00 0.00 0.00 73 1011.3